Skip Page Navigation
NASA JPL Caltech
NASA Logo - Jet Propulsion Laboratory + View the NASA Portal
+ Near-Earth Object (NEO) Program
Search JPL
JPL Home Earth Solar System Stars & Galaxies Technology
JPL Solar System Dynamics
BODIES ORBITS EPHEMERIDES TOOLS PHYSICAL DATA DISCOVERY FAQ SITE MAP
JPL Small-Body Database Browser
Search: [ help ]  
16466 Piyashiriyama (1990 FJ2)
Classification: Main-belt Asteroid          SPK-ID: 2016466
Ephemeris | Orbit Diagram | Orbital Elements | Physical Parameters | Discovery Circumstances | Close-Approach Data ]

[ show orbit diagram ]
Orbital Elements at Epoch 2457000.5 (2014-Dec-09.0) TDB
Reference: JPL 7 (heliocentric ecliptic J2000)
 Element Value Uncertainty (1-sigma)   Units 
e .1189883133118424 6.3131e-08  
a 2.67555597974313 2.3387e-08 AU
q 2.357196086542081 1.6698e-07 AU
i 11.97178520134259 1.017e-05 deg
node 210.7232032272263 2.8595e-05 deg
peri 295.0949618447657 5.1977e-05 deg
M 270.7124031392476 4.4105e-05 deg
tp 2457396.967984823273
(2016-Jan-09.46798482)
0.00019669 JED
period 1598.525210158462
4.38
2.0959e-05
5.738e-08
d
yr
n .2252075836603873 2.9528e-09 deg/d
Q 2.993915872944179 2.617e-08 AU
  Orbit Determination Parameters
   # obs. used (total)      1060  
   data-arc span      23685 days (64.85 yr)  
   first obs. used      1949-11-30  
   last obs. used      2014-10-05  
   planetary ephem.      DE431  
   SB-pert. ephem.      SB431-BIG16  
   condition code      0  
   fit RMS      .49796  
   data source      ORB  
   producer      Otto Matic  
   solution date      2014-Oct-09 14:32:37  

Additional Information
 Earth MOID = 1.39605 AU 
 T_jup = 3.338 
[ show covariance matrix ]

Ephemeris | Orbit Diagram | Orbital Elements | Physical Parameters | Discovery Circumstances | Close-Approach Data ]

Physical Parameter Table
Parameter Symbol Value Units Sigma Reference Notes
absolute magnitude H 12.6 mag n/a MPO267771  

16466 Piyashiriyama           Discovered 1990 Mar. 29 by K. Endate and K. Watanabe at Kitami.
Mt. Piyashiri, 987 m in height, is situated in northeast Nayoro city, Hokkaido. Its summit is crested with crags and Japanese stone pines, and it is famous for the the beautiful views it offers.
NOTE: some special characters may not display properly (any characters within {} are an attempt to place the proper accent above a character)
Reference: 20051215/MPCPages.arcLast Updated: 2006-03-22

[ show close-approach data ]
Alternate Designations
 1990 FJ2 = 1979 WE6 = 1981 EQ49 = 1999 JU40 
Ephemeris | Orbit Diagram | Orbital Elements | Physical Parameters | Discovery Circumstances | Close-Approach Data ]
ABOUT SSD CREDITS/AWARDS PRIVACY/COPYRIGHT GLOSSARY LINKS
FirstGov 2014-Oct-21 15:10 UT
(server date/time)  
NASA Home Page
Site Manager:   Donald K. Yeomans
Webmaster  Alan B. Chamberlin